User: anonymous   Login
Location: Newark
(43.0000°N, 1.6781°W)
Time: 12:50:27
(UTC+00:00)
Language:

CUBESAT XI-V - Orbit

View from above orbital plane
View from above orbital plane
View from above satellite
View from above satellite

Ground track
Ground track

The orbit data is extracted from the following two-line orbital elements,

1 28895U 05043F   22337.68853754  .00000827  00000-0  16416-3 0  9995
2 28895  98.1288 106.7252 0015794 332.1168  27.9187 14.64693752912185
Epoch (UTC): 03 December 2022 16:31:29
Eccentricity: 0.0015794
inclination: 98.1288°
perigee height: 667 km
apogee height: 689 km
right ascension of ascending node: 106.7252°
argument of perigee: 332.1168°
revolutions per day: 14.64693752
mean anomaly at epoch: 27.9187°
orbit number at epoch: 91218

The dashed part of the orbit path shows where the satellite is in the earth's shadow,  

DLR